[[{"header":{"parameterUnit":"m.s-1","parameterCategory":1,"la1":30.2991,"la2":30.254,"lo1":-89.0895,"lo2":-89.0444,"dy":0.0017,"dx":0.0017,"nx":28,"ny":28,"refTime":"2024-07-18T21:00:00:Z","depth":0,"parameterNumber":2,"parameterNumberName":"U-component_of_WINDS"},"data":[0,0,0,0,0,0,0,0,0,0,0,0,0,0,0,0,0,0,0,0,0,0,0,0,0,0,0,0,0,0,0,0,0,0,0,0,0,0,0,0,0,0,0,0,0,0,0,0,0,0,0,0,0,0,0,0,0,0,0.7837,0.7835,0,0.7656,0.7654,0.7652,0.7604,0.7605,0.7606,0.7607,0.7413,0.7407,0.7401,0,0,0,0,0,0,0,0,0,0,0,0,0,0.8132,0.8127,0.7837,0.7835,0.7833,0.7656,0.7654,0.7651,0.7603,0.7605,0.7606,0.7607,0.7415,0.7408,0.7401,0,0,0,0,0,0,0,0,0,0,0,0,0,0.7983,0.8126,0.7837,0.7788,0.7781,0.7657,0.7654,0.7651,0.7603,0.7605,0.7606,0.7608,0.7418,0.7409,0.74,0.7309,0,0,0.7371,0.7367,0,0,0,0,0,0,0,0,0.7992,0.7972,0.7797,0.7791,0.7784,0.7654,0.7687,0.7536,0.7603,0.767,0.7607,0.7609,0.7492,0.7476,0.7439,0.73,0.7292,0.7371,0.7365,0.7361,0.7358,0,0,0,0,0,0,0,0.8002,0.798,0.7765,0.7795,0.7786,0.7771,0.7752,0.7658,0.7574,0.7665,0.7661,0.7641,0.7488,0.7448,0.7434,0.7289,0.7371,0.7363,0.7357,0.7353,0.7067,0.7065,0,0,0,0,0,0,0.8022,0.7989,0.7771,0.776,0.7894,0.7765,0.7743,0.7694,0.7575,0.7558,0.7639,0.7639,0.7463,0.7445,0.7427,0.7313,0.7361,0.7352,0.7347,0.7069,0.7067,0.7064,0,0,0,0,0,0,0.8029,0.8003,0.7778,0.7873,0.7843,0.7758,0.7703,0.769,0.7649,0.7556,0.7539,0.7614,0.7463,0.744,0.7339,0.7306,0.7348,0.734,0.7072,0.7068,0.7066,0.7086,0,0,0,0,0,0,0.8037,0.8006,0.7973,0.7873,0.7839,0.7697,0.7701,0.7685,0.7634,0.7632,0.7528,0.7512,0.7463,0.7354,0.733,0.7294,0.7332,0.7074,0.707,0.7067,0.7087,0.7084,0.708,0,0,0,0,0,0.8048,0.7984,0.7971,0.7945,0.7796,0.7695,0.7675,0.7622,0.7632,0.7596,0.7536,0.7515,0.7313,0.7344,0.7317,0.7277,0.7076,0.7071,0.7067,0.7089,0.7084,0.708,0,0,0,0,0,0,0.8078,0.797,0.7955,0.7856,0.7786,0.7687,0.7641,0.7619,0.7541,0.7542,0.7477,0.7454,0.7358,0.7307,0.7343,0.7183,0.7194,0.7184,0.722,0.7215,0.7211,0.7225,0.7325,0,0,0,0,0,0.8074,0.8004,0.7912,0.7834,0.7799,0.7726,0.768,0.7646,0.7569,0.7538,0.747,0.7394,0.7313,0.7261,0.7181,0.708,0.7056,0.7039,0.7036,0.7033,0.7025,0.6967,0.6958,0.7049,0.7049,0.7049,0,0,0.8064,0.7996,0.7955,0.7838,0.7779,0.7706,0.7701,0.7623,0.7567,0.7525,0.7427,0.7375,0.7285,0.7184,0.7136,0.7138,0.6994,0.7027,0.7026,0.7019,0.6961,0.6953,0.6945,0.7046,0.7047,0.7047,0,0,0.8007,0.7949,0.7878,0.782,0.7732,0.7684,0.7667,0.7572,0.7536,0.7438,0.7404,0.7335,0.7198,0.7135,0.7085,0.7006,0.6983,0.6981,0.6962,0.6906,0.6899,0.6892,0.6863,0.6854,0.6974,0.6974,0.6974,0,0.8004,0.7895,0.7844,0.7768,0.7717,0.7679,0.7605,0.755,0.7439,0.7403,0.7409,0.7236,0.7173,0.7056,0.7037,0.6998,0.6975,0.6993,0.6905,0.6897,0.689,0.6862,0.6851,0.6974,0.6974,0.6974,0.6974,0,0.7896,0.7821,0.7773,0.7671,0.7614,0.754,0.7475,0.7424,0.7394,0.7345,0.7244,0.7167,0.7072,0.7041,0.7011,0.692,0.6925,0.6918,0.6928,0.6883,0.6855,0.6844,0.6975,0.6975,0.6974,0.6974,0,0,0.7853,0.7724,0.7708,0.7661,0.7561,0.75,0.7423,0.7333,0.729,0.7214,0.7147,0.7032,0.7026,0.6969,0.6931,0.6882,0.6824,0.6881,0.6878,0.6873,0.6718,0.6724,0.6712,0.6808,0.6806,0.6804,0.6726,0,0.7784,0.7649,0.76,0.7487,0.7416,0.7379,0.7311,0.7241,0.7193,0.7124,0.7069,0.6989,0.6987,0.6952,0.6902,0.6842,0.6792,0.6847,0.6743,0.674,0.6767,0.6698,0.6703,0.6633,0.6715,0.6713,0.6711,0,0.7685,0.7612,0.7494,0.7403,0.7371,0.7312,0.7225,0.716,0.7079,0.7047,0.6985,0.6951,0.6866,0.6882,0.6763,0.6802,0.6756,0.672,0.6716,0.6704,0.6723,0.6683,0.6609,0.6598,0.6694,0.6695,0.6696,0,0.7665,0.7537,0.7449,0.741,0.7303,0.7262,0.7215,0.7136,0.7085,0.7008,0.6973,0.6886,0.6839,0.6771,0.6713,0.673,0.66,0.661,0.6569,0.6571,0.6543,0.6545,0.646,0.6514,0.6515,0.6515,0.6515,0,0.7593,0.7522,0.744,0.7386,0.7304,0.7248,0.7168,0.7118,0.7048,0.6982,0.6942,0.6881,0.6808,0.6736,0.669,0.6599,0.6577,0.6547,0.6536,0.6551,0.6555,0.652,0.6523,0.6512,0.6513,0.6513,0.6514,0,0.7557,0.7499,0.7402,0.7309,0.7284,0.7228,0.7146,0.7091,0.7042,0.6959,0.6936,0.6857,0.677,0.6706,0.6593,0.6562,0.6464,0.6452,0.6493,0.6487,0.6449,0.6454,0.6338,0.632,0.6387,0.6387,0.6386,0,0.7515,0.7459,0.7362,0.7316,0.727,0.7197,0.7145,0.7087,0.7034,0.6939,0.6895,0.6806,0.6732,0.6595,0.6526,0.6439,0.6424,0.639,0.641,0.6427,0.6423,0.6427,0.6421,0.6387,0.6386,0.6386,0.6386,0,0.7445,0.742,0.7349,0.7268,0.7208,0.714,0.7071,0.7035,0.6965,0.6907,0.682,0.6763,0.6648,0.656,0.6467,0.6414,0.6387,0.638,0.6366,0.638,0.6406,0.6391,0.6484,0.6382,0.6383,0.6383,0.6383,0.6383,0.7404,0.7354,0.7278,0.7199,0.7142,0.7079,0.7024,0.6968,0.6896,0.6801,0.677,0.6679,0.6598,0.6471,0.6418,0.6344,0.6344,0.6324,0.6319,0.6314,0.6315,0.6418,0.6327,0.6327,0.6327,0.6327,0.6327,0,0.7333,0.7283,0.7211,0.7118,0.7056,0.704,0.6963,0.6911,0.6833,0.6762,0.6691,0.659,0.6504,0.6429,0.634,0.6295,0.628,0.6274,0.6276,0.6264,0.632,0.6342,0.6287,0.6287,0.6287,0.6287,0.6287,0.6287,0.7289,0.7202,0.7168,0.7052,0.7001,0.6915,0.6872,0.6813,0.6756,0.6647,0.6577,0.653,0.6456,0.6361,0.6281,0.6261,0.6229,0.6225,0.6202,0.6256,0.626,0.6265,0.6285,0.6219,0.6219,0.6152,0.6151,0.6151]},{"header":{"parameterUnit":"m.s-1","parameterCategory":1,"la1":30.2991,"la2":30.254,"lo1":-89.0895,"lo2":-89.0444,"dy":0.0017,"dx":0.0017,"nx":28,"ny":28,"refTime":"2024-07-18T21:00:00:Z","depth":0,"parameterNumber":3,"parameterNumberName":"V-component_of_WINDS"},"data":[0,0,0,0,0,0,0,0,0,0,0,0,0,0,0,0,0,0,0,0,0,0,0,0,0,0,0,0,0,0,0,0,0,0,0,0,0,0,0,0,0,0,0,0,0,0,0,0,0,0,0,0,0,0,0,0,0,0,0.6102,0.6102,0,0.6167,0.6167,0.6168,0.6271,0.6273,0.6275,0.6277,0.6339,0.6339,0.6339,0,0,0,0,0,0,0,0,0,0,0,0,0,0.6064,0.6064,0.6102,0.6102,0.6103,0.6167,0.6167,0.6168,0.6271,0.6273,0.6275,0.6277,0.6339,0.6339,0.6339,0,0,0,0,0,0,0,0,0,0,0,0,0,0.6099,0.6064,0.6101,0.6162,0.6168,0.6166,0.6167,0.6169,0.627,0.6273,0.6276,0.6279,0.6339,0.6339,0.6339,0.6282,0,0,0.6339,0.6339,0,0,0,0,0,0,0,0,0.6097,0.6101,0.6152,0.6158,0.6165,0.6214,0.6177,0.6206,0.627,0.6231,0.6277,0.628,0.6295,0.6299,0.6305,0.6285,0.6288,0.6339,0.6339,0.6339,0.6339,0,0,0,0,0,0,0,0.6095,0.6098,0.6127,0.6153,0.616,0.6185,0.6193,0.6183,0.6246,0.6235,0.6243,0.6249,0.6299,0.6304,0.6307,0.6289,0.6339,0.6339,0.6339,0.6338,0.6227,0.6224,0,0,0,0,0,0,0.6084,0.6096,0.6125,0.6129,0.6137,0.6184,0.6193,0.6195,0.6247,0.6258,0.6247,0.6254,0.6303,0.6307,0.6309,0.6247,0.6339,0.6338,0.6338,0.623,0.6226,0.6223,0,0,0,0,0,0,0.6082,0.6085,0.6123,0.6115,0.6121,0.6181,0.6183,0.6195,0.6201,0.6256,0.6267,0.6241,0.6306,0.631,0.6289,0.625,0.6338,0.6338,0.6233,0.6229,0.6225,0.6121,0,0,0,0,0,0,0.6081,0.6084,0.6064,0.6113,0.6121,0.6101,0.6181,0.6194,0.6201,0.621,0.6253,0.6263,0.6308,0.6288,0.6289,0.6252,0.6338,0.6237,0.6231,0.6226,0.6128,0.6113,0.6101,0,0,0,0,0,0.6079,0.603,0.6062,0.6065,0.6097,0.6099,0.6103,0.6157,0.6197,0.6177,0.6212,0.6262,0.6255,0.6285,0.6286,0.6249,0.624,0.6233,0.6227,0.6134,0.6116,0.6101,0,0,0,0,0,0,0.5973,0.6038,0.6074,0.604,0.6063,0.6116,0.6092,0.6136,0.6148,0.6156,0.6221,0.623,0.6201,0.6223,0.6256,0.6198,0.6255,0.6248,0.6184,0.6168,0.6154,0.6149,0.6338,0,0,0,0,0,0.5946,0.5943,0.5999,0.5964,0.5974,0.6031,0.6033,0.6073,0.6099,0.6109,0.6144,0.6166,0.617,0.617,0.6176,0.6132,0.6143,0.6107,0.6093,0.6082,0.6075,0.6055,0.6039,0.6202,0.6202,0.6202,0,0,0.5889,0.5924,0.5918,0.5944,0.5966,0.5961,0.6038,0.6029,0.6026,0.6108,0.6091,0.6116,0.6146,0.6114,0.6101,0.6131,0.6033,0.6074,0.6064,0.6064,0.6046,0.6031,0.6017,0.6198,0.6198,0.6199,0,0,0.5783,0.5809,0.5783,0.5805,0.5839,0.5878,0.5871,0.5918,0.5939,0.5923,0.5985,0.5982,0.5986,0.6005,0.6015,0.5918,0.5964,0.5918,0.5847,0.5826,0.5814,0.5803,0.5768,0.5755,0.5911,0.5911,0.5911,0,0.5707,0.5703,0.5764,0.5752,0.5761,0.5837,0.5811,0.5829,0.5862,0.5867,0.5901,0.5909,0.5934,0.5907,0.5884,0.5889,0.5884,0.5913,0.5811,0.58,0.5791,0.5759,0.5746,0.5905,0.5906,0.5906,0.5907,0,0.5609,0.5605,0.558,0.5613,0.562,0.56,0.5657,0.5657,0.5696,0.5731,0.5714,0.5748,0.5762,0.5759,0.5797,0.5738,0.5756,0.5799,0.5858,0.5769,0.574,0.5728,0.5897,0.5899,0.5901,0.5902,0,0,0.5436,0.5504,0.5494,0.551,0.5555,0.5552,0.5537,0.5553,0.5551,0.5572,0.556,0.5563,0.5604,0.5615,0.5656,0.5637,0.5559,0.5684,0.5685,0.5659,0.5497,0.5464,0.5449,0.5591,0.5589,0.5587,0.5495,0,0.5339,0.5317,0.5372,0.5336,0.5334,0.5407,0.5393,0.5419,0.5451,0.5453,0.5488,0.5489,0.5543,0.5551,0.5536,0.5572,0.5527,0.5579,0.558,0.5579,0.5569,0.5433,0.5398,0.5309,0.5484,0.5482,0.548,0,0.5223,0.524,0.5204,0.5252,0.5253,0.5239,0.5259,0.526,0.529,0.5315,0.5329,0.5377,0.5365,0.5422,0.5406,0.544,0.5444,0.5462,0.546,0.5461,0.5523,0.5431,0.5282,0.5268,0.5463,0.5464,0.5466,0,0.51,0.5114,0.5095,0.5106,0.5161,0.5151,0.5173,0.5206,0.5213,0.523,0.5235,0.5249,0.5257,0.5267,0.5318,0.5355,0.5295,0.5357,0.5315,0.5313,0.5298,0.5298,0.5147,0.5301,0.5301,0.5301,0.5302,0,0.4986,0.4961,0.5041,0.5029,0.5003,0.5067,0.504,0.5069,0.5098,0.5093,0.5157,0.515,0.5219,0.5219,0.5259,0.524,0.5243,0.5262,0.5273,0.5256,0.5253,0.5258,0.5266,0.5298,0.5299,0.5299,0.53,0,0.4844,0.4897,0.4881,0.4935,0.4948,0.4927,0.4973,0.4964,0.5001,0.4994,0.4996,0.5053,0.5058,0.511,0.5125,0.5152,0.5117,0.514,0.5107,0.5114,0.5069,0.5072,0.4916,0.4899,0.5063,0.5061,0.506,0,0.4767,0.475,0.4803,0.4805,0.4825,0.4827,0.4834,0.4896,0.4901,0.4936,0.4922,0.4932,0.4944,0.4947,0.499,0.5002,0.5025,0.497,0.5027,0.5011,0.5024,0.5024,0.5023,0.4957,0.4955,0.4953,0.4952,0,0.4625,0.4653,0.4662,0.468,0.4688,0.4704,0.4725,0.4723,0.4791,0.4794,0.48,0.4809,0.4826,0.4835,0.4855,0.4877,0.4925,0.4933,0.4924,0.4907,0.4888,0.4898,0.5073,0.4936,0.4938,0.4939,0.494,0.494,0.4514,0.4503,0.4539,0.4547,0.457,0.4588,0.4582,0.462,0.4626,0.4646,0.4682,0.4683,0.4715,0.4747,0.4766,0.4767,0.4795,0.4782,0.4779,0.4774,0.4765,0.4889,0.4771,0.4771,0.4772,0.4772,0.4773,0,0.4375,0.4403,0.441,0.4438,0.4444,0.4491,0.4517,0.4519,0.4519,0.4545,0.4556,0.4563,0.4573,0.4617,0.4631,0.4624,0.4646,0.4625,0.4626,0.463,0.4739,0.4745,0.4607,0.4607,0.4607,0.4607,0.4607,0.4607,0.4304,0.4288,0.4319,0.4315,0.4342,0.4345,0.4355,0.4373,0.4394,0.44,0.4409,0.4438,0.4472,0.4489,0.45,0.4513,0.4515,0.4486,0.4506,0.4607,0.4622,0.4638,0.4644,0.4486,0.4486,0.4398,0.4397,0.4396]}]]